Weather History for Nueva Ocotepeque, Honduras

Change the Weather History Date:

Saturday, May 17, 2014

  Actual Average (MHTG) Record (MHTG)
Temperature  
Mean Temperature 72 °F -  
Max Temperature 79 °F 83 °F 89 °F (1998)
Min Temperature 66 °F 65 °F 59 °F (2013)
Cooling Degree Days 8    
Growing Degree Days 22 (Base 50)    
Moisture  
Dew Point 65 °F    
Average Humidity 79    
Maximum Humidity 100    
Minimum Humidity 49    
Precipitation  
Precipitation 0.00 in - - ()
Sea Level Pressure  
Sea Level Pressure 29.96 in    
Wind  
Wind Speed 12 mph ()    
Max Wind Speed 22 mph    
Max Gust Speed 26 mph    
Visibility 6.2 miles    
Events Rain    
Averages and records for this station are not official NWS values.
T = Trace of Precipitation, MM = Missing Value Source: Averaged Metar Reports

Daily Weather History Graph

Daily Weather History Graph

Search for Another Location

Airport:

Trip Planner

Search our weather history database for the weather conditions in past years. The results will help you decide how hot, cold, wet, or windy it might be!

Date:

Astronomy

May. 17, 2014 Rise Set
Actual Time 5:22 AM CST 6:11 PM CST
Civil Twilight 4:59 AM CST 6:34 PM CST
Nautical Twilight 4:32 AM CST 7:01 PM CST
Astronomical Twilight 4:05 AM CST 7:28 PM CST
Moon 9:15 PM CST (5/17) 8:04 AM CST (5/17)
Length of Visible Light 13h 34m
Length of Day
12h 48m
Waning Gibbous, 89% of the Moon is Illuminated
May 17
Waning Gibbous
May 21
Last Quarter
May 28
New
Jun 5
First Quarter
Jun 12
Full

Hourly Weather History & Observations

Time (CST) Temp. Dew Point Humidity Pressure Visibility Wind Dir Wind Speed Gust Speed Precip Events Conditions
12:02 AM 69.8 °F 66.2 °F 88% 30.06 in 6.2 mi North 11.5 mph - N/A   Light Drizzle
12:12 AM 69.8 °F 66.2 °F 88% 30.06 in 6.2 mi North 11.5 mph 19.6 mph N/A Rain Light Rain
12:27 AM 68.0 °F 68.0 °F 100% 30.06 in 6.2 mi North 15.0 mph - N/A Rain Light Rain
12:33 AM 68.0 °F 68.0 °F 100% 30.06 in 6.2 mi North 12.7 mph - N/A   Overcast
12:36 AM 68.0 °F 68.0 °F 100% 30.06 in 6.2 mi North 12.7 mph - N/A Rain Light Rain
12:58 AM 68.4 °F 67.5 °F 97% 29.94 in 6.2 mi North 11.5 mph - 0.00 in Rain Light Rain
1:24 AM 68.0 °F 68.0 °F 100% 30.04 in 6.2 mi NNW 10.4 mph - N/A   Mostly Cloudy
1:58 AM 68.0 °F 67.1 °F 97% 29.92 in 6.2 mi North 11.5 mph - 0.00 in   Overcast
2:58 AM 68.4 °F 66.0 °F 92% 29.92 in 6.2 mi North 12.7 mph - N/A   Mostly Cloudy
3:58 AM 67.5 °F 64.6 °F 90% 29.93 in 6.2 mi North 12.7 mph - N/A   Overcast
4:43 AM 68.0 °F 66.2 °F 94% 30.02 in 6.2 mi NNW 8.1 mph - N/A   Overcast
4:53 AM 68.0 °F 66.2 °F 94% 30.03 in 6.2 mi NNW 9.2 mph - N/A   Overcast
4:58 AM 67.3 °F 65.3 °F 93% 29.94 in 6.2 mi NNW 9.2 mph - N/A   Overcast
5:58 AM 67.8 °F 65.1 °F 91% 29.94 in 6.2 mi North 12.7 mph - N/A   Overcast
6:00 AM 68 °F 61 °F 73% 29.93 in 6 mi NNW 9.2 mph - -   Smoke
6:51 AM 69.8 °F 64.4 °F 83% 30.05 in 6.2 mi North 16.1 mph - N/A   Light Drizzle
6:58 AM 69.6 °F 64.8 °F 84% 29.97 in 6.2 mi North 16.1 mph - 0.00 in   Light Drizzle
7:01 AM 69.8 °F 64.4 °F 83% 30.06 in 6.2 mi North 17.3 mph 20.7 mph N/A   Overcast
7:58 AM 72.1 °F 64.2 °F 76% 29.96 in 6.2 mi NNW 12.7 mph - 0.00 in   Mostly Cloudy
8:58 AM 75.2 °F 64.0 °F 68% 29.96 in 6.2 mi NNW 11.5 mph - N/A   Mostly Cloudy
9:00 AM 69 °F 61 °F 69% 29.94 in 6 mi NNW 11.5 mph - -   Smoke
9:53 AM 77.0 °F 64.4 °F 65% 30.06 in 6.2 mi North 20.7 mph 24.2 mph N/A   Mostly Cloudy
9:58 AM 77.5 °F 64.6 °F 64% 29.95 in 6.2 mi North 17.3 mph 24.2 mph N/A   Mostly Cloudy
10:08 AM 77.0 °F 64.4 °F 65% 30.06 in 6.2 mi North 18.4 mph - N/A   Overcast
10:58 AM 74.8 °F 63.9 °F 69% 29.95 in 6.2 mi NNE 16.1 mph - N/A   Overcast
11:58 AM 75.6 °F 64.8 °F 69% 29.93 in 6.2 mi North 17.3 mph 23.0 mph N/A   Overcast
12:00 PM 75 °F 62 °F 55% 29.95 in 6 mi NNW 11.5 mph - -   Smoke
12:58 PM 77.0 °F 64.6 °F 65% 29.91 in 6.2 mi North 17.3 mph 24.2 mph N/A   Overcast
1:58 PM 78.3 °F 64.6 °F 63% 29.89 in 6.2 mi North 21.9 mph 25.3 mph N/A   Mostly Cloudy
2:58 PM 79.3 °F 65.1 °F 62% 29.86 in 6.2 mi North 20.7 mph - N/A   Partly Cloudy
3:00 PM 77 °F 62 °F 49% 29.85 in 6 mi NNW 13.8 mph - -   Smoke
3:58 PM 77.2 °F 64.9 °F 66% 29.85 in 6.2 mi North 19.6 mph 26.5 mph N/A   Partly Cloudy
4:58 PM 76.5 °F 64.9 °F 67% 29.87 in 6.2 mi North 16.1 mph 26.5 mph N/A   Scattered Clouds
5:58 PM 73.2 °F 64.0 °F 73% 29.88 in 6.2 mi North 16.1 mph 24.2 mph N/A   Partly Cloudy
6:00 PM 73 °F 62 °F 60% 29.89 in 6 mi NNW 11.5 mph - -   Smoke
6:58 PM 72.7 °F 64.0 °F 74% 29.92 in 6.2 mi North 15.0 mph - N/A   Overcast
7:58 PM 71.4 °F 64.2 °F 78% 29.94 in 6.2 mi North 16.1 mph - N/A   Mostly Cloudy
8:58 PM 71.1 °F 64.4 °F 79% 29.95 in 6.2 mi North 13.8 mph - N/A   Mostly Cloudy
9:58 PM 70.2 °F 63.9 °F 80% 29.96 in 6.2 mi NNW 11.5 mph - N/A   Mostly Cloudy
10:58 PM 70.0 °F 64.0 °F 81% 29.96 in 6.2 mi North 10.4 mph - N/A   Mostly Cloudy
11:13 PM 69.8 °F 64.4 °F 83% 30.05 in 6.2 mi North 12.7 mph - N/A   Overcast
11:58 PM 70.5 °F 63.5 °F 78% 29.94 in 6.2 mi North 12.7 mph - N/A   Overcast